Location: Glenmont
(42.6048°N, 73.7696°W)
Time: 12:50:16
(UTC+00:00)

Daily predictions for brighter satellites

Satellite Brightness Start Highest point End
(mag) Time Altitude Azimuth Time Altitude Azimuth Time Altitude Azimuth
USA 59 Rocket 2.1 23:39:10 10° NNE 23:40:54 12° NE 23:42:48 10° ENE
Cosmos 2100 Rocket 4.5 23:34:37 10° SSW 23:40:58 72° W 23:47:22 10° N
Meteor PRIRODA 4.2 23:38:27 10° SE 23:41:25 31° ENE 23:44:23 10° N
Iridium 4 Rocket 4.1 23:38:01 10° NNE 23:41:29 24° E 23:44:52 10° SE
Meteor 1-25 Rocket 4.3 23:35:47 10° S 23:41:31 88° WNW 23:47:11 10° N
Cosmos 2278 Rocket 4.1 23:39:42 10° NNE 23:42:20 13° NE 23:44:56 10° ENE
Landsat 7 4.1 23:39:39 10° S 23:44:19 73° WSW 23:49:02 10° NNW
CZ-4B R/B 4.2 23:41:02 10° ESE 23:45:30 26° ENE 23:49:56 10° N
Cosmos 1151 Rocket 3.3 23:44:48 10° N 23:48:56 45° ENE 23:53:00 10° SSE
SPOT 1/Viking Rocket 3.7 23:44:01 10° SSE 23:49:02 54° ENE 23:54:05 10° N
Okean O Rocket 3.4 23:47:15 10° E 23:49:38 15° ENE 23:52:02 10° NNE
DMSP B5D1-3 4.5 23:45:53 10° NNE 23:50:58 75° ESE 23:56:01 10° S
Tsikada Rocket 4.1 23:46:12 10° N 23:52:22 56° E 23:58:33 10° SSE
TRACE 4.5 23:50:35 10° N 23:54:00 85° WNW 23:57:22 10° SSW
Resurs 01 Rocket 2.7 23:50:37 10° SE 23:54:20 27° ENE 23:58:03 10° N
ARGOS Delta rocket 4.5 23:49:37 10° SE 23:54:27 41° ENE 23:59:05 10° N
BlueWalker 3 3.8 23:51:48 10° NW 23:54:36 20° NNE 23:57:25 10° ENE
